Raton, NM

10:45 AM MDT on April 28, 2017 (GMT -0600)
Raton Municipal-Crews

Weather History for KRTN - August, 2013

Change the Weather History Date:

Thursday, August 1, 2013

  Actual Average (KTAD) Record (KTAD)
Temperature  
Mean Temperature 72 °F -  
Max Temperature 88 °F 87 °F 99 °F (2012)
Min Temperature 59 °F 57 °F 50 °F (1971)
Cooling Degree Days 6    
Growing Degree Days 22 (Base 50)    
Moisture  
Dew Point 56 °F    
Average Humidity 65    
Maximum Humidity 87    
Minimum Humidity 28    
Precipitation  
Precipitation 0.10 in - - ()
Sea Level Pressure  
Sea Level Pressure 30.03 in    
Wind  
Wind Speed 8 mph (SE)    
Max Wind Speed 25 mph    
Max Gust Speed 33 mph    
Visibility 10 miles    
Events Rain    
Averages and records for this station are not official NWS values.
T = Trace of Precipitation, MM = Missing Value Source: NWS Daily Summary

Daily Weather History Graph

Daily Weather History Graph

Search for Another Location

Airport or City:

Trip Planner

Search our weather history database for the weather conditions in past years. The results will help you decide how hot, cold, wet, or windy it might be!

Date:

Astronomy

Aug. 01, 2013 Rise Set
Actual Time 6:04 AM MDT 8:04 PM MDT
Civil Twilight 5:35 AM MDT 8:32 PM MDT
Nautical Twilight 5:00 AM MDT 9:07 PM MDT
Astronomical Twilight 4:23 AM MDT 9:44 PM MDT
Moon 1:42 AM MDT (8/1) 4:14 PM MDT (8/1)
Length of Visible Light 14h 57m
Length of Day
14h 00m
Waning Crescent, 23% of the Moon is Illuminated
Aug 1
Waning Crescent
Aug 6
New
Aug 14
First Quarter
Aug 20
Full
Aug 28
Last Quarter

Hourly Weather History & Observations

Time (MDT) Temp. Heat Index Dew Point Humidity Pressure Visibility Wind Dir Wind Speed Gust Speed Precip Events Conditions
12:53 AM 61.0 °F - 55.9 °F 83% 30.08 in 10.0 mi NE 8.1 mph - N/A   Clear
1:53 AM 60.1 °F - 55.9 °F 86% 30.09 in 10.0 mi NW 4.6 mph - N/A   Clear
2:53 AM 61.0 °F - 57.0 °F 87% 30.08 in 10.0 mi WSW 8.1 mph - N/A   Clear
3:53 AM 60.1 °F - 55.9 °F 86% 30.07 in 10.0 mi West 9.2 mph - N/A   Clear
4:53 AM 60.1 °F - 55.0 °F 83% 30.12 in 10.0 mi Calm Calm - N/A   Clear
5:53 AM 59.0 °F - 55.0 °F 87% 30.12 in 10.0 mi ENE 4.6 mph - N/A   Clear
6:53 AM 60.1 °F - 55.9 °F 86% 30.11 in 10.0 mi NNE 3.5 mph - N/A   Clear
7:53 AM 63.0 °F - 55.9 °F 78% 30.10 in 10.0 mi NNE 3.5 mph - N/A   Clear
8:53 AM 64.9 °F - 57.0 °F 75% 30.10 in 10.0 mi SE 3.5 mph - N/A   Clear
9:53 AM 70.0 °F - 57.0 °F 63% 30.08 in 10.0 mi Variable 5.8 mph - N/A   Clear
10:53 AM 73.9 °F - 57.9 °F 57% 30.05 in 10.0 mi SSW 4.6 mph - N/A   Clear
11:53 AM 80.1 °F 80.2 °F 55.9 °F 43% 30.00 in 10.0 mi SW 10.4 mph 16.1 mph N/A   Clear
12:53 PM 84.0 °F 82.5 °F 53.1 °F 34% 29.94 in 10.0 mi South 8.1 mph 18.4 mph N/A   Clear
1:53 PM 81.0 °F - 50.0 °F 34% 29.94 in 10.0 mi SSW 25.3 mph 33.4 mph N/A   Scattered Clouds
2:53 PM 82.9 °F - 46.9 °F 28% 29.92 in 10.0 mi South 15.0 mph 23.0 mph N/A   Partly Cloudy
3:53 PM 82.0 °F - 51.1 °F 34% 29.92 in 10.0 mi SW 15.0 mph 23.0 mph N/A   Scattered Clouds
4:04 PM 80.6 °F - 50.0 °F 34% 30.20 in 10.0 mi West 15.0 mph - N/A   Mostly Cloudy
4:53 PM 77.0 °F - 57.0 °F 50% 29.94 in 10.0 mi NE 5.8 mph - 0.02 in   Overcast
5:53 PM 72.0 °F - 57.9 °F 61% 29.99 in 9.0 mi East 9.2 mph - 0.00 in Rain Light Rain
6:44 PM 69.8 °F - 57.2 °F 64% 30.19 in 10.0 mi NE 10.4 mph - 0.08 in   Mostly Cloudy
6:53 PM 69.1 °F - 59.0 °F 70% 29.95 in 10.0 mi NE 8.1 mph - 0.08 in   Mostly Cloudy
7:53 PM 66.9 °F - 61.0 °F 81% 29.97 in 10.0 mi ESE 10.4 mph - N/A   Overcast
8:53 PM 68.0 °F - 57.9 °F 70% 29.97 in 10.0 mi WSW 10.4 mph - N/A   Overcast
9:53 PM 69.1 °F - 55.0 °F 61% 29.94 in 10.0 mi WNW 8.1 mph - N/A   Clear
10:53 PM 64.9 °F - 57.0 °F 75% 29.94 in 10.0 mi NE 3.5 mph - N/A   Clear
11:53 PM 64.9 °F - 57.0 °F 75% 29.91 in 10.0 mi ESE 3.5 mph - N/A   Partly Cloudy